Location: Roland
(31.1349°N, 85.4372°W)
Time: 04:37:56
(UTC+00:00)

Vanguard 2 Rocket - Pass Details

Date: 09 December 2021
Orbit: 554 x 3324 km, 32.9° (Epoch: 16 January)

Event Time Altitude Azimuth Distance (km) Brightness Sun altitude
Rises 02:36:52 0° 283° (WNW) 3,835 10.7 -49.9°
Reaches altitude 10° 02:39:03 10° 281° (W) 3,128 10.1 -50.4°
Enters shadow 02:41:31 25° 275° (W) 2,434 9.3 -50.9°
